Regional Weather Roundup
Issued by NWS

Home | Current Version | Previous Version | Graphics & Text | Print | Product List | Glossary On
Versions: 1 2 3 4 5 6 7 8 9 10 11 12 13 14 15 16 17 18 19 20 21 22 23 24 25 26 27 28 29 30 31 32 33 34 35 36 37 38 39 40 41 42 43 44 45 46 47 48 49 50
000
ASUS43 KMPX 211801
RWRMN
WEATHER ROUNDUP FOR MINNESOTA
NATIONAL WEATHER SERVICE TWIN CITIES/CHANHASSEN MN
1200 PM CST TUE FEB 21 2017


NOTE: "FAIR" INDICATES FEW OR NO CLOUDS BELOW 12,000 FEET WITH NO
SIGNIFICANT WEATHER AND/OR OBSTRUCTIONS TO VISIBILITY. N/A MEANS
CURRENT SKY AND/OR WEATHER CONDITIONS ARE NOT AVAILABLE.

MNZ060>063-068>070-211900-
   Twin Cities Metro

CITY           SKY/WX    TMP DP  RH WIND       PRES   REMARKS
TWIN CITIES    MOSUNNY   53  39  59 VRB7      29.83F
6HR MIN TEMP:  32; 6HR MAX TEMP:  53;

ST PAUL        SUNNY     46  42  86 SE9       29.85F
CRYSTAL        SUNNY     53  36  52 S12       29.80F
BLAINE         MOSUNNY   50  45  81 SE8       29.81F
LAKEVILLE      SUNNY     52  41  66 S10       29.83F
EDEN PRAIRIE   SUNNY     56  39  53 S12       29.81F
6HR MIN TEMP:  30; 6HR MAX TEMP:  56;

SOUTH ST PAUL  SUNNY     46  46  99 SE8       29.84F
LAKE ELMO      FAIR      48  41  76 S10       29.85F
$$
MNZ001>005-007-008-013>017-022>024-027-028-211900-
   Northwest Minnesota

CITY           SKY/WX    TMP DP  RH WIND       PRES   REMARKS
BEMIDJI        SUNNY     41  35  77 E8        29.68F
HALLOCK        FOG       34  34 100 E6        29.70S VSB 1/4 WCI  29
ROSEAU         FOG       34  28  80 SE5       29.71S VSB<1/4 WCI  30
WARROAD        FOG       34  28  80 E6        29.72S VSB 3/4 WCI  29
THIEF RVR FALL SUNNY     41  36  82 E9        29.68F
CROOKSTON      SUNNY     45  41  87 SE3       29.68S
FOSSTON        CLOUDY    46  39  76 S10       29.67S
DETROIT LAKES  CLOUDY    45  36  70 S7        29.69R
MOORHEAD       CLOUDY    39  36  87 S7        29.69S
PARK RAPIDS    MOSUNNY   44  32  62 S10       29.68F
MAHNOMEN       FAIR      45  36  72 S13       29.67R
$$
MNZ006-009>011-018-025>026-211900-
   North Central Minnesota

CITY           SKY/WX    TMP DP  RH WIND       PRES   REMARKS
BAUDETTE       CLOUDY    35  32  88 SE5       29.71F WCI  31
FLAG ISLAND    CLOUDY    32  30  93 S6        29.71S FOG     WCI  26
INTL FALLS     CLOUDY    37  32  82 CALM      29.73S
6HR MIN TEMP:  33; 6HR MAX TEMP:  37;

WASKISH        MOSUNNY   41  41 100 E5        29.71F
BIG FORK       MOSUNNY   41  36  81 CALM      29.74F
LONGVILLE      MOSUNNY   39  39 100 SE10      29.70F
GRAND RAPIDS   SUNNY     40  34  79 SE9       29.76F
CRANE LAKE     CLOUDY    36  34  93 CALM      29.77F
ORR            CLOUDY    39  32  75 S7        29.73F
COOK           MOSUNNY   39  34  81 CALM      29.76F
WALKER         FAIR      41  32  70 E5        29.70F
$$
MNZ012-019>021-037-211900-
   Northeast Minnesota

CITY           SKY/WX    TMP DP  RH WIND       PRES   REMARKS
DULUTH         MOSUNNY   40  34  79 SW8       29.79F
6HR MIN TEMP:  33; 6HR MAX TEMP:  40;

ELY            MOSUNNY   37  34  87 CALM      29.77F
HIBBING        MOSUNNY   36  36 100 E6        29.77F
EVELETH        CLOUDY    37  35  90 S5        29.79F
DULUTH HARBOR  SUNNY     43  37  81 CALM      29.82F
TWO HARBORS    SUNNY     46  37  71 SW7       29.78F
SILVER BAY     MOSUNNY   46  36  66 S7        29.77S
GRAND MARAIS     N/A     38  35  89 W16       29.79R
G MARAIS ARPRT SUNNY     43  28  56 SW8       29.75R
$$
MNZ029>031-032-039>041-046>048-054>057-064-211900-
   West Central Minnesota

CITY           SKY/WX    TMP DP  RH WIND       PRES   REMARKS
FERGUS FALLS   CLOUDY    46  37  71 S12       29.73S
WHEATON        SUNNY     54  37  54 SW7       29.71F
MORRIS         SUNNY     48  41  76 S8        29.70F
ALEXANDRIA     SUNNY     50  40  68 S15       29.72F
ELBOW LAKE     FAIR      49  41  75 SW12      29.71S
WADENA         MOSUNNY   48  37  66 SW10      29.69S
GLENWOOD       CLOUDY    48  39  71 S14       29.73S
APPLETON       MOSUNNY   55  41  58 SW10      29.71F
BENSON         MOSUNNY   54  37  54 SW9       29.73F
ORTONVILLE     MOSUNNY   54  37  54 SW3       29.69F
WILLMAR        FAIR      54  46  76 SW12      29.75F
$$
MNZ033>034-036-042>043-049>051-058-059-211900-
   Central Minnesota

CITY           SKY/WX    TMP DP  RH WIND       PRES   REMARKS
ST CLOUD       SUNNY     51  40  65 S13       29.76F
6HR MIN TEMP:  28; 6HR MAX TEMP:  51;

SAUK CENTRE    FAIR      50  40  68 S15       29.73F
PAYNESVILLE    SUNNY     51  41  68 S13       29.75F
AITKIN         MOSUNNY   45  34  65 SE8       29.73F
PINE RIVER     MOSUNNY   39  34  81 SE8       29.75F
BRAINERD       MOSUNNY   48  36  63 SE13      29.72F
STAPLES        PTSUNNY   46  37  71 S14       29.70F
LONG PRAIRIE   FAIR      50  39  66 S15G21    29.73S
LITTLE FALLS   SUNNY     48  39  71 SE13      29.73F
LITCHFIELD     SUNNY     55  45  67 S5        29.76
BUFFALO        SUNNY     53  39  58 S10G18    29.79F
MAPLE LAKE     SUNNY     54  42  66 S12G18    29.77F
HUTCHINSON     SUNNY     54  45  71 S9G16     29.79F
$$
MNZ037-044-045-052-053-211900-
   East Central Minnesota

CITY           SKY/WX    TMP DP  RH WIND       PRES   REMARKS
PRINCETON      SUNNY     48  39  71 SE8       29.79F
MORA           CLOUDY    36  36 100 SE5       29.83F FOG
CAMBRIDGE      MOSUNNY   43  41  93 SE5       29.79F
RUSH CITY      PTSUNNY   39  39 100 SE7       29.82F FOG
MOOSE LAKE     MOSUNNY   39  36  87 S5        29.79F
HINCKLEY       CLOUDY    37  37 100 SE6       29.82F FOG
CLOQUET        SUNNY     41  36  81 S5        29.79F
MCGREGOR       SUNNY     43  36  75 SE8       29.76F
$$
MNZ071>073-080-081-089-090-097-098-211900-
   Southwest Minnesota

CITY           SKY/WX    TMP DP  RH WIND       PRES   REMARKS
MONTEVIDEO     MOSUNNY   55  48  76 W10       29.75S
GRANITE FALLS  MOSUNNY   54  44  68 S12       29.75F
CANBY          CLOUDY    53  38  57 SW18G25   29.73F
MARSHALL       MOSUNNY   55  40  56 SW15G25   29.74F
REDWOOD FALLS  MOSUNNY   58  40  51 SW22G32   29.75F
OLIVIA         SUNNY     54  45  71 SW16      29.74F
PIPESTONE      MOSUNNY   54  37  54 SW12      29.78F
WINDOM         MOSUNNY   57  43  58 SW18G26   29.80F
WORTHINGTON    SUNNY     55  42  61 SW21G31   29.81F
JACKSON        SUNNY     54  41  62 S21G29    29.83F
TRACY          MOSUNNY   55  42  62 SW21G31   29.77F
SLAYTON        MOSUNNY   52  41  67 SW20G28   29.80F
$$
MNZ065>067-074>077-082>085-091>093-211900-
   South Central Minnesota

CITY           SKY/WX    TMP DP  RH WIND       PRES   REMARKS
MANKATO          N/A     54  44  69 S18G25    29.81F
NEW ULM        CLOUDY    57  43  58 SW18G26   29.77F
ST JAMES       SUNNY     57  45  62 S18       29.82F
FAIRMONT       SUNNY     57  46  66 S18G25    29.84F
GLENCOE        SUNNY     56  48  74 S9G18     29.78F
FARIBAULT      SUNNY     55  43  62 S12G22    29.85F
OWATONNA       SUNNY     55  41  58 S16       29.86F
WASECA         SUNNY     54  43  66 S22       29.86F
ALBERT LEA     SUNNY     54  39  58 S12G18    29.88F
$$
MNZ078>079-086>088-094>096-211900-
   Southeast Minnesota

CITY           SKY/WX    TMP DP  RH WIND       PRES   REMARKS
ROCHESTER      SUNNY     52  43  71 S15       29.90F
6HR MIN TEMP:  30; 6HR MAX TEMP:  52; 6HR PCP: TRACE;

RED WING       SUNNY     43  37  81 SE7       29.87F
STANTON        SUNNY     55  42  60 S12       29.83F
DODGE CENTER   SUNNY     52  41  66 S16       29.87F
WINONA         SUNNY     50  41  71 E6        29.92F
AUSTIN         SUNNY     52  43  71 S13       29.90F
PRESTON        SUNNY     49  41  72 S10       29.91F
$$
ABBREVIATIONS USED IN REMARKS
   TC - TEMPERATURES IN CELSIUS
  WCI - WIND CHILL INDEX
   HX - HEAT INDEX
  VSB - VISIBILITY
$$



USA.gov is the U.S. government's official web portal to all federal, state and local government web resources and services.